Flag for Germany Weather past 2 weeks in Waldkraiburg, Bavaria, Germany

Now
52 °F

Cool.


Feels Like: 47 °F
Forecast: 38 / 47 °F
Wind: 16 mph from West

Location: Erding Airport

Current Time: Dec 19, 2014 at 5:09:18 AM

Latest Report: Dec 19, 2014 at 4:20 AM


Visibility: N/A

Pressure: 30.09 "Hg

Humidity: 77%

Dew point: 45 °F

Location of WaldkraiburgLocation

Historic Weather in Waldkraiburg — Graph

°F

Waldkraiburg temperature yesterday

Maximum temperature yesterday: 52 °F (at 10:20 PM)
Minimum temperature yesterday: 43 °F (at 12:20 AM)
Average temperature yesterday: 47 °F

Past Weeks' High & Low Weather Summary

 TemperatureHumidityPressure
High54 °F (Dec 19, 12:20 AM)100% (Dec 4, 3:20 AM)30.42 "Hg (Dec 4, 3:20 AM)
Low27 °F (Dec 9, 7:20 PM)57% (Dec 11, 7:20 PM)29.83 "Hg (Dec 17, 2:20 PM)
Average39 °F92%30.06 "Hg
* Reported Dec 4 3:20 AM — Dec 19 3:20 AM, Waldkraiburg, Weather by CustomWeather, © 2014

Note: Actual official high and low records may vary slightly from our data, if they occured in-between our weather recording intervals... More about our weather records

Advertising

Waldkraiburg weather history for previous 24 hours

 ConditionsComfort  
Time TempWeatherWind HumidityBarometerVisibility
3:20 AM
Dec 19
52 °FCool.16 mph82%30.12 "HgN/A
2:20 AM52 °FCool.13 mph82%30.12 "HgN/A
1:20 AM52 °FCool.15 mph82%30.09 "HgN/A
12:20 AM54 °FCool.17 mph82%30.09 "HgN/A
11:20 PM
Dec 18
52 °FCool.13 mph88%30.09 "HgN/A
10:20 PM52 °FCool.16 mph88%30.07 "HgN/A
9:20 PM50 °FCool.10 mph100%30.07 "Hg3 mi
8:20 PM50 °FCool.13 mph94%30.07 "Hg3 mi
7:20 PM50 °FCool.14 mph94%30.07 "Hg5 mi
6:20 PM50 °FCool.13 mph94%30.07 "HgN/A
5:20 PM50 °FCool.12 mph94%30.04 "Hg3 mi
4:20 PM50 °FDrizzle. Mostly cloudy.13 mph94%30.04 "Hg5 mi
3:20 PM50 °FDrizzle. Fog.12 mph94%30.01 "Hg3 mi
2:20 PM48 °FDrizzle. Fog.10 mph100%30.01 "Hg3 mi
1:20 PM50 °FDrizzle. Broken clouds.13 mph88%30.01 "Hg6 mi
12:20 PM50 °FPartly sunny.10 mph82%30.01 "HgN/A
11:20 AM48 °FPartly sunny.6 mph87%30.04 "HgN/A
10:20 AM46 °FPartly sunny.6 mph87%30.04 "HgN/A
9:20 AM45 °FPartly sunny.5 mph93%30.04 "HgN/A
8:20 AM45 °FBroken clouds.3 mph93%30.04 "HgN/A
7:20 AM45 °FLight rain. Passing clouds.7 mph93%30.04 "HgN/A
6:20 AM45 °FQuite cool.9 mph93%30.01 "HgN/A
5:20 AM45 °FQuite cool.10 mph93%30.01 "Hg3 mi
Weather by CustomWeather, © 2014

See weather overviewHow to use our weather pages